Location: Unspecified
(29.9680°N, 0.0000°E)
Time: 15:31:48
(UTC+00:00)

Explorer 7 - Pass Details

Date: 02 July 2019
Orbit: 485 x 680 km, 50.3° (Epoch: 17 July)

Event Time Altitude Azimuth Distance (km) Brightness Sun altitude
Rises 04:26:08 0° 243° (WSW) 2,563 - -7.7°
Exits shadow 04:28:08 - 251° (WSW) 1,789 8.8 -7.4°
Reaches altitude 10° 04:28:23 10° 252° (WSW) 1,701 8.7 -7.3°
Maximum altitude 04:31:58 37° 321° (NW) 809 7.6 -6.7°
Drops below altitude 10° 04:35:46 10° 30° (NNE) 1,794 10.6 -6.0°
Sets 04:38:11 0° 39° (NE) 2,724 11.9 -5.5°
